Featured Flight

MET183 - Los Angeles to Hong Kong

Boeing 777-300ER
785MU
15 hrs 15 mins
6305 nm
Scheduled - Daily

Bid/PiRep Status

Bid was submitted on Jan 04 2017.

No PiRep on file for this bid.

Departure

Departing from
Los Angeles (LAX)
Departure gate
Scheduled Departure
GMT 1940
Local 1140
METAR KLAX 222353Z 27022KT 10SM FEW015 FEW060 16/09 A3002 RMK AO2 SLP166 T01560094 10161 20144 56019
TAF KLAX 222339Z 2300/2406 27014G22KT P6SM SCT050 FM230330 35014G20KT P6SM SKC FM230800 34008KT P6SM SKC FM231600 35010KT P6SM SKC WS020/35030KT FM232100 26014G20KT P6SM SKC
  • No charts available

Arrival

Arriving at
Hong Kong (HKG)
Arrival gate
Terminal 1
Scheduled Arrival
GMT 1055
Local 1855
METAR VHHH 230000Z 33010KT 2200 BR FEW006 SCT018 17/16 Q1017 NOSIG
TAF TAF VHHH 222300Z 2300/2406 36010KT 3500 BR FEW006 SCT020 TX17/2306Z TX15/2406Z TN13/2323Z TEMPO 2300/2303 30010KT 1500 BR -RA BECMG 2309/2311 7000 NSW

Route Map

Planning Resources

KONT SLI J134 LAX J5 LANDO J50 EHF J5 YVR J590 YZT J523 YZP TRK18 KATCH B757 MARLO J123 ODK R341 NATES R220 GOC W18 KINPU Y88 SENJO W18 NAKTU V58 XMC V17 LABEL Y50 KOSHI A1 APU W4 HLG A1 ELATO J101 PONTI VHHH
POM7 PMD V197 AMONT V459 FRA V332 RBL J1 OED J501 TOU J523 YZP TR19 FRIED J804R MDO J179 ENM G583 BALUB B804 GIRAN B962 DITOR B233 NULAR B467 TENAS A586 CJU B576 SALMI L1 KADLO A1 ELATO STAR VHHH
VTU5 RZS LIBBO BRINY ALCOA CEPAS COBAD 4100N 1400W 4300N 1500W 4500N 1600W4700N 1800E 4600N 1600E KALNA OTR5 ADNAP OTR5 PABBA A590 MJE A1 RUSAR A1 APU MKG A1 ELATO V521 ABBEY
PMD ROBIE K SEALS YKE PLT
HASSA5 PMD J65 LANDO J50 EHF J5 YVR J590 YZT J523 YZP TRK18 KATCH B757 MARLO J123 ODK R341 NATES R220 GOC W18 KINPU Y88 SENJO W18 NAKTU V58 XMC V17 LABEL Y50 KOSHI A1 APU W4 HLG A1 ELATO J101 TUBBY DOTM5A 26DME CI07R 55IFL LC
Route:
OFP Layout:
Units:
Detailed Navlog:
ETOPS Planning:
Plan Stepclimbs:
Runway Analysis:
Include NOTAMS:
FIR NOTAMS:
Flight Maps:

Return Flights

MET184
Boeing 777-300ER
1200 GMT
MET194
Airbus A330-243
0145 GMT

Popularity

Hub Current Bids PiReps this month Total PiReps
KMCI 0 0 2
KLAX 0 0 0
KBOS 0 0 0